This is the latest recevied weather packets stored in our database for station/object AA8FM-13. If no packets are shown the sender has not sent any weather packets the latest 10 day(s).
| Time | Temp. | Humidity | Pressure | Rain* | Wind** | Luminosity | Snow |
|---|---|---|---|---|---|---|---|
| 1777906892 | 18.33° C | 52% | 1010.1 hPa | 0 mm | - | 592 W/m² | - |
| 1777906590 | 17.78° C | 52% | 1009.9 hPa | 0 mm | - | 554 W/m² | - |
| 1777906285 | 17.78° C | 53% | 1010 hPa | 0 mm | - | 612 W/m² | - |
| 1777905982 | 18.33° C | 51% | 1009.7 hPa | 0 mm | - | 496 W/m² | - |
| 1777905679 | 17.78° C | 54% | 1009.7 hPa | 0 mm | - | 516 W/m² | - |
| 1777905375 | 17.78° C | 53% | 1010.1 hPa | 0 mm | - | 502 W/m² | - |
| 1777905073 | 18.33° C | 52% | 1010 hPa | 0 mm | - | 489 W/m² | - |
| 1777904771 | 17.78° C | 53% | 1009.9 hPa | 0 mm | - | 482 W/m² | - |
| 1777904467 | 17.22° C | 52% | 1009.6 hPa | 0 mm | - | 467 W/m² | - |
| 1777904164 | 16.67° C | 53% | 1010.1 hPa | 0 mm | - | 457 W/m² | - |
| 1777903861 | 16.67° C | 54% | 1010.1 hPa | 0 mm | - | 450 W/m² | - |
| 1777903558 | 16.67° C | 53% | 1010 hPa | 0 mm | - | 361 W/m² | - |
| 1777903253 | 16.67° C | 53% | 1010.1 hPa | 0 mm | - | 461 W/m² | - |
| 1777902950 | 16.67° C | 53% | 1010.2 hPa | 0 mm | - | 412 W/m² | - |
| 1777902647 | 16.67° C | 52% | 1010.1 hPa | 0 mm | - | 393 W/m² | - |
| 1777902344 | 16.11° C | 52% | 1010.2 hPa | 0 mm | - | 359 W/m² | - |
| 1777902041 | 16.11° C | 53% | 1010 hPa | 0 mm | - | 380 W/m² | - |
| 1777901740 | 16.11° C | 53% | 1009.9 hPa | 0 mm | - | 351 W/m² | - |
| 1777901437 | 16.11° C | 52% | 1009.9 hPa | 0 mm | - | 353 W/m² | - |
| 1777901134 | 15.56° C | 54% | 1010.1 hPa | 0 mm | - | 335 W/m² | - |
| 1777900832 | 15.56° C | 54% | 1010.2 hPa | 0 mm | - | 317 W/m² | - |
| 1777900529 | 15° C | 54% | 1010 hPa | 0 mm | - | 287 W/m² | - |
| 1777900226 | 15° C | 56% | 1010.1 hPa | 0 mm | - | 217 W/m² | - |
| 1777899922 | 14.44° C | 55% | 1010 hPa | 0 mm | - | 129 W/m² | - |
| 1777899619 | 13.89° C | 57% | 1010.3 hPa | 0 mm | - | 227 W/m² | - |
* Rain latest hour (hover to see other rain measurements)
** Current wind speed in m/s (hover to see current wind gust speed)